1504303200.54,1653,23.25,73858.5,7.15,6.33,6.43,0,*48
1504303201.76,1654,23.25,73858.8,7.17,6.39,6.39,0,*4A
1504303202.97,1655,23.25,73860.5,7.17,6.29,6.47,0,*43
1504303204.2,1656,23.25,73854.8,7.15,6.25,6.35,0,*4B
1504303205.43,1657,23.25,73854.5,7.15,6.13,6.25,0,*4E
1504303206.64,1658,23.25,73860.0,7.15,6.21,6.25,0,*40
1504303207.87,1659,23.25,73858.5,7.15,6.33,6.43,0,*42
1504303209.11,1660,23.25,73854.0,7.15,6.33,6.35,0,*49
1504303210.34,1661,23.25,73844.5,7.17,6.39,6.47,0,*45
1504303211.6,1662,23.25,73842.0,7.15,6.43,6.47,0,*49
1504303212.86,1663,23.25,73848.5,7.15,6.43,6.47,0,*48
1504303214.09,1664,23.25,73854.0,7.17,6.47,6.51,0,*4E
1504303215.34,1665,23.25,73852.8,7.15,6.43,6.51,0,*49
1504303216.6,1666,23.25,73852.0,7.15,6.43,6.47,0,*4D
1504303217.85,1667,23.25,73848.8,7.15,6.43,6.57,0,*4D
1504303219.11,1668,23.25,73850.3,7.15,6.35,6.47,0,*42
1504303220.34,1669,23.25,73846.0,7.17,6.35,6.39,0,*48
1504303221.58,1670,23.25,73848.0,7.15,6.33,6.43,0,*49
1504303222.84,1671,23.25,73850.8,7.15,6.43,6.47,0,*4B
1504303224.06,1672,23.25,73848.0,7.17,6.47,6.53,0,*4B
1504303225.28,1673,23.25,73848.5,7.17,6.39,6.51,0,*41
1504303226.52,1674,23.25,73850.3,7.17,6.35,6.47,0,*4D
1504303227.74,1675,23.25,73854.0,7.17,6.47,6.53,0,*4C
1504303229.0,1676,23.25,73858.8,7.15,6.43,6.51,0,*4B
1504303230.21,1677,23.25,73850.0,7.17,6.39,6.53,0,*47
1504303231.47,1678,23.25,73846.8,7.15,6.43,6.47,0,*42
1504303232.69,1679,23.25,73846.8,7.17,6.47,6.53,0,*40
1504303233.93,1680,23.25,73846.8,7.19,6.39,6.53,0,*41
1504303235.18,1681,23.25,73852.5,7.19,6.47,6.53,0,*49
1504303236.39,1682,23.25,73848.5,7.17,6.39,6.53,0,*4D
1504303237.64,1683,23.25,73862.8,7.19,6.39,6.51,0,*40
1504303238.9,1684,23.25,73862.0,7.19,6.47,6.51,0,*4E
1504303240.15,1685,23.25,73862.5,7.19,6.47,6.51,0,*4F
1504303241.37,1686,23.25,73866.8,7.17,6.47,6.53,0,*40
1504303242.6,1687,23.25,73860.5,7.17,6.47,6.51,0,*43
1504303243.82,1688,23.25,73858.8,7.17,6.39,6.51,0,*45
1504303245.05,1689,23.25,73860.5,7.17,6.51,6.53,0,*48
1504303246.29,1690,23.25,73860.5,7.19,6.51,6.53,0,*4E
1504303247.55,1691,23.25,73870.5,7.19,6.47,6.51,0,*4A
1504303248.8,1692,23.25,73870.0,7.19,6.35,6.47,0,*4B
1504303250.06,1693,23.25,73874.3,7.19,6.35,6.47,0,*4A
1504303251.27,1694,23.25,73864.8,7.17,6.29,6.47,0,*4E
1504303252.48,1695,23.25,73856.3,7.17,6.25,6.47,0,*43
1504303253.71,1696,23.25,73844.8,7.19,6.29,6.47,0,*42
1504303254.95,1697,23.25,73850.0,7.19,6.47,6.53,0,*4E
1504303256.18,1698,23.25,73858.8,7.19,6.29,6.51,0,*4B
1504303257.41,1699,23.25,73870.8,7.19,6.25,6.47,0,*41
1504303258.65,1700,23.25,73858.5,7.19,6.25,6.47,0,*40
1504303259.87,1701,23.25,73848.5,7.19,5.73,5.95,0,*4D
1504303261.11,1702,23.25,73852.8,7.19,5.85,6.13,0,*4A
1504303262.31,1703,23.25,73854.3,7.17,6.03,6.35,0,*4C
1504303263.54,1704,23.19,73852.0,7.19,6.07,6.47,0,*44
1504303264.79,1705,23.19,73846.0,7.19,6.13,6.35,0,*45
1504303266.03,1706,23.25,73848.3,7.19,6.17,6.39,0,*4E
1504303267.27,1707,23.25,73846.8,7.19,6.17,6.39,0,*4F
1504303268.51,1708,23.25,73854.5,7.19,6.25,6.47,0,*48
1504303269.76,1709,23.25,73860.3,7.19,6.35,6.47,0,*48
1504303271.02,1710,23.25,73866.3,7.19,6.35,6.51,0,*47
1504303272.27,1711,23.25,73852.8,7.19,6.17,6.51,0,*46
1504303273.48,1712,23.25,73852.0,7.19,6.07,6.39,0,*4A
1504303274.7,1713,23.25,73860.0,7.19,5.85,6.29,0,*43
1504303275.9,1714,23.25,73862.3,7.21,5.85,6.33,0,*44
1504303277.12,1715,23.25,73864.8,7.19,5.85,6.29,0,*45
1504303278.33,1716,23.25,73864.8,7.19,5.73,6.29,0,*4F
1504303279.57,1717,23.25,73866.5,7.19,5.81,6.39,0,*42
1504303280.82,1718,23.25,73868.0,7.19,5.85,6.39,0,*49
1504303282.06,1719,23.25,73868.3,7.19,5.85,6.39,0,*48
1504303283.3,1720,23.25,73878.3,7.19,5.81,6.39,0,*46
1504303284.54,1721,23.25,73876.5,7.19,5.81,6.39,0,*47
1504303285.79,1722,23.25,73876.0,7.19,5.73,6.47,0,*40
1504303287.01,1723,23.25,73876.5,7.19,5.67,6.47,0,*44
1504303288.24,1724,23.25,73874.8,7.19,5.71,6.47,0,*44
1504303289.48,1725,23.25,73876.0,7.19,5.73,6.47,0,*47
1504303290.73,1726,23.25,73874.0,7.19,5.73,6.47,0,*44
1504303291.98,1727,23.25,73870.5,7.19,5.81,6.47,0,*48
1504303293.18,1728,23.25,73874.0,7.21,5.99,6.51,0,*42
1504303294.38,1729,23.25,73872.5,7.21,6.29,6.53,0,*49
1504303295.59,1730,23.25,73874.5,7.21,6.33,6.53,0,*4A
1504303296.8,1731,23.25,73876.3,7.21,6.39,6.57,0,*45
1504303298.01,1732,23.25,73868.5,7.21,6.21,6.51,0,*49
1504303299.26,1733,23.25,73870.0,7.19,6.17,6.39,0,*48
1504303300.46,1734,23.25,73872.3,7.21,6.33,6.53,0,*4E
1504303301.69,1735,23.25,73872.3,7.19,6.29,6.51,0,*4D
1504303302.9,1736,23.25,73872.5,7.21,6.33,6.51,0,*4E
1504303304.14,1737,23.25,73868.8,7.19,6.35,6.53,0,*40
1504303305.37,1738,23.25,73870.5,7.21,6.51,6.53,0,*46
1504303306.6,1739,23.25,73874.3,7.21,6.51,6.53,0,*47
1504303307.84,1740,23.25,73870.5,7.19,6.47,6.53,0,*45
1504303309.07,1741,23.25,73870.5,7.21,6.51,6.53,0,*48
1504303310.29,1742,23.25,73868.5,7.21,6.43,6.57,0,*4C
1504303311.52,1743,23.25,73866.5,7.21,6.39,6.51,0,*46
1504303312.75,1744,23.25,73862.8,7.21,6.39,6.51,0,*41
1504303313.96,1745,23.25,73860.0,7.21,6.33,6.43,0,*49
1504303315.19,1746,23.25,73858.3,7.19,6.25,6.47,0,*42
1504303316.4,1747,23.25,73860.5,7.21,6.21,6.43,0,*48
1504303317.6,1748,23.25,73856.0,7.21,6.21,6.43,0,*47
1504303318.81,1749,23.25,73856.8,7.21,6.21,6.51,0,*45
1504303320.02,1750,23.25,73860.8,7.21,6.29,6.43,0,*46
1504303321.23,1751,23.25,73856.3,7.21,6.17,6.33,0,*4D
1504303322.45,1752,23.25,73852.8,7.21,6.17,6.39,0,*44
1504303323.66,1753,23.25,73860.5,7.21,6.17,6.33,0,*4F
1504303324.86,1754,23.25,73860.0,7.21,6.21,6.39,0,*47
1504303326.06,1755,23.25,73856.5,7.21,5.89,6.07,0,*4A
1504303327.28,1756,23.25,73864.5,7.19,5.95,6.13,0,*4A
1504303328.5,1757,23.19,73870.8,7.19,5.85,6.03,0,*4B
1504303329.72,1758,23.25,73866.0,7.19,5.71,5.85,0,*42
1504303330.92,1759,23.25,73862.3,7.19,5.59,5.71,0,*42
1504303332.16,1760,23.19,73854.3,7.19,5.81,5.93,0,*41
1504303333.38,1761,23.25,73856.3,7.19,6.13,6.25,0,*46
1504303334.6,1762,23.25,73856.5,7.19,6.17,6.25,0,*41
1504303335.85,1763,23.25,73866.0,7.19,6.17,6.39,0,*4D
1504303337.02,1764,23.25,73858.8,7.17,6.07,6.25,0,*48
1504303338.21,1765,23.25,73888.0,7.19,5.95,6.07,0,*4F
1504303339.38,1766,23.25,73888.3,7.17,6.07,6.25,0,*4A
1504303340.55,1767,23.25,73866.0,7.17,6.07,6.25,0,*4B
1504303341.75,1768,23.25,73846.5,7.17,5.71,5.81,0,*4B
1504303342.94,1769,23.19,73844.0,7.17,5.37,5.55,0,*41
1504303344.16,1770,23.25,73846.3,7.15,5.67,5.77,0,*4E
1504303345.4,1771,23.25,73840.3,7.15,5.93,5.99,0,*44
1504303346.62,1772,23.25,73848.5,7.15,5.63,5.77,0,*48
1504303347.86,1773,23.25,73844.5,7.15,5.77,5.89,0,*4D
1504303349.08,1774,23.19,73832.0,7.15,5.55,5.67,0,*4A
1504303350.31,1775,23.25,73844.3,7.15,5.55,5.67,0,*4B
1504303351.53,1776,23.25,73844.5,7.13,5.81,5.93,0,*4C
1504303352.7,1777,23.25,73854.0,7.13,5.99,6.11,0,*4D
1504303353.94,1778,23.25,73842.8,7.11,5.85,5.89,0,*4F
1504303355.14,1779,23.19,73850.5,7.11,5.95,6.07,0,*4A
1504303356.34,1780,23.25,73862.3,7.13,5.93,5.99,0,*4C
1504303357.53,1781,23.25,73870.3,7.11,6.07,6.07,0,*45
1504303358.72,1782,23.19,73856.3,7.11,5.95,6.07,0,*4E
1504303359.9,1783,23.25,73858.8,7.13,5.99,6.11,0,*46
1504303361.13,1784,23.19,73852.3,7.15,5.93,6.03,0,*4E
1504303362.3,1785,23.25,73860.0,7.13,6.11,6.21,0,*40
1504303363.5,1786,23.25,73878.0,7.11,6.07,6.11,0,*45
1504303364.69,1787,23.25,73864.0,7.11,5.99,6.11,0,*40
1504303365.89,1788,23.25,73862.0,7.11,5.99,6.11,0,*4F
1504303367.09,1789,23.25,73876.5,7.13,5.99,6.17,0,*4A
1504303368.32,1790,23.25,73880.0,7.15,5.89,6.03,0,*40
1504303369.52,1791,23.25,73876.0,7.13,5.93,6.11,0,*4F
1504303370.75,1792,23.25,73874.0,7.11,5.89,5.99,0,*46
1504303371.93,1793,23.19,73868.5,7.13,6.03,6.25,0,*40
1504303373.15,1794,23.25,73868.8,7.13,5.93,6.13,0,*48
1504303374.37,1795,23.25,73866.3,7.11,5.85,6.07,0,*49
1504303375.59,1796,23.19,73878.8,7.11,5.99,6.17,0,*46
1504303376.79,1797,23.25,73886.5,7.11,6.11,6.33,0,*42
1504303377.98,1798,23.25,73892.3,7.11,5.99,6.21,0,*4D
1504303379.16,1799,23.25,73894.0,7.13,6.03,6.25,0,*4A
1504303380.35,1800,23.25,73900.8,7.11,5.95,6.21,0,*4F
1504303381.58,1801,23.25,73900.5,7.11,5.89,6.29,0,*4B
1504303382.81,1802,23.19,73894.5,7.11,5.77,6.17,0,*44
1504303384.03,1803,23.25,73892.5,7.11,5.73,6.11,0,*47
1504303385.21,1804,23.19,73892.5,7.13,5.63,6.03,0,*40
1504303386.43,1805,23.19,73886.3,7.11,5.73,5.99,0,*42
1504303387.64,1806,23.19,73882.0,7.11,5.73,6.07,0,*45
1504303388.85,1807,23.25,73888.8,7.13,5.77,6.13,0,*47
1504303390.06,1808,23.25,73892.5,7.11,5.77,6.29,0,*43
1504303391.28,1809,23.25,73892.8,7.11,5.85,6.29,0,*4F
1504303392.47,1810,23.25,73896.0,7.09,5.93,6.29,0,*49
1504303393.67,1811,23.25,73900.3,7.13,5.93,6.33,0,*48
1504303394.88,1812,23.19,73906.3,7.11,5.77,6.29,0,*48
1504303396.1,1813,23.19,73898.5,7.11,5.77,6.21,0,*41
1504303397.31,1814,23.19,73888.8,7.11,5.77,6.11,0,*45
1504303398.53,1815,23.25,73884.0,7.13,5.89,6.13,0,*45
1504303399.75,1816,23.25,73872.8,7.11,5.85,6.11,0,*4A
1504303400.92,1817,23.25,73880.0,7.13,5.99,6.33,0,*44
1504303402.16,1818,23.19,73880.5,7.11,5.85,6.13,0,*46
1504303403.37,1819,23.19,73886.3,7.11,5.77,6.11,0,*48
1504303404.57,1820,23.19,73870.3,7.11,5.63,5.99,0,*44
1504303405.75,1821,23.19,73882.5,7.13,5.71,6.03,0,*44
1504303406.94,1822,23.19,73876.8,7.11,5.59,5.99,0,*4F
1504303408.14,1823,23.19,73890.5,7.11,5.63,5.95,0,*4B
1504303409.35,1824,23.25,73886.5,7.11,5.73,6.07,0,*45
1504303410.55,1825,23.19,73888.5,7.13,5.81,6.11,0,*4C
1504303411.79,1826,23.19,73882.0,7.11,5.85,6.17,0,*4F
1504303412.99,1827,23.19,73888.8,7.13,5.99,6.13,0,*45
1504303414.18,1828,23.19,73886.0,7.11,5.99,6.21,0,*49
1504303415.4,1829,23.19,73882.8,7.11,5.99,6.17,0,*4D
1504303416.62,1830,23.19,73890.8,7.11,5.95,6.17,0,*49
1504303417.82,1831,23.19,73892.0,7.11,5.99,6.21,0,*41
1504303419.01,1832,23.19,73888.3,7.11,5.95,6.21,0,*4E
1504303420.23,1833,23.25,73890.0,7.09,5.93,6.13,0,*41
1504303421.4,1834,23.19,73890.3,7.09,5.95,6.29,0,*49
1504303422.57,1835,23.25,73892.3,7.09,6.07,6.29,0,*40
1504303423.76,1836,23.19,73890.8,7.09,6.13,6.29,0,*46
1504303424.97,1837,23.25,73890.3,7.11,6.21,6.33,0,*44
1504303426.17,1838,23.25,73890.8,7.11,6.21,6.33,0,*4B
1504303427.4,1839,23.19,73886.8,7.11,6.21,6.39,0,*40
1504303428.62,1840,23.25,73884.5,7.11,6.17,6.33,0,*41
1504303429.82,1841,23.25,73880.5,7.09,5.95,6.17,0,*46
1504303431.03,1842,23.25,73880.8,7.11,6.17,6.29,0,*48
1504303432.22,1843,23.25,73880.8,7.11,6.07,6.29,0,*48
1504303433.42,1844,23.19,73886.8,7.11,6.11,6.21,0,*40
1504303434.62,1845,23.19,73888.3,7.13,6.21,6.35,0,*45
1504303435.85,1846,23.19,73896.0,7.11,6.29,6.39,0,*40
1504303437.03,1847,23.25,73902.3,7.13,6.21,6.33,0,*41
1504303438.22,1848,23.19,73906.3,7.11,6.11,6.21,0,*4C
1504303439.42,1849,23.19,73892.8,7.13,5.99,6.13,0,*4D
1504303440.64,1850,23.19,73868.0,7.11,6.07,6.17,0,*47
1504303441.88,1851,23.19,73862.5,7.11,6.17,6.39,0,*4B
1504303443.1,1852,23.19,73870.0,7.11,6.07,6.17,0,*45
1504303444.28,1853,23.19,73886.3,7.13,6.21,6.33,0,*44
1504303445.49,1854,23.25,73880.5,7.11,6.17,6.29,0,*4F
1504303446.69,1855,23.25,73874.8,7.11,6.11,6.21,0,*40
1504303447.91,1856,23.19,73836.3,7.11,6.07,6.17,0,*41
1504303449.12,1857,23.19,73852.3,7.11,6.17,6.29,0,*4C
1504303450.34,1858,23.19,73856.8,7.11,5.99,6.17,0,*4B
1504303451.54,1859,23.19,73840.5,7.11,5.95,6.07,0,*47
1504303452.72,1860,23.19,73850.8,7.13,6.21,6.33,0,*44
1504303453.94,1861,23.19,73868.8,7.11,6.17,6.33,0,*42
1504303455.15,1862,23.25,73874.8,7.13,6.33,6.35,0,*43
1504303456.35,1863,23.19,73878.3,7.11,6.21,6.21,0,*46
1504303457.54,1864,23.19,73878.3,7.11,6.11,6.29,0,*4A
1504303458.75,1865,23.19,73870.8,7.11,6.21,6.33,0,*43
1504303459.95,1866,23.19,73878.8,7.11,6.29,6.33,0,*48
1504303461.18,1867,23.19,73876.8,7.11,6.29,6.39,0,*43
1504303462.38,1868,23.19,73886.3,7.11,6.29,6.33,0,*46
1504303463.61,1869,23.19,73886.0,7.11,6.33,6.39,0,*46
1504303464.83,1870,23.19,73884.3,7.11,6.33,6.39,0,*4E
1504303466.08,1871,23.19,73884.0,7.11,6.39,6.43,0,*48
1504303467.3,1872,23.19,73876.3,7.11,6.33,6.39,0,*4C
1504303468.53,1873,23.19,73890.8,7.11,6.21,6.39,0,*4E
1504303469.75,1874,23.19,73882.8,7.11,6.29,6.39,0,*41
1504303470.96,1875,23.19,73872.5,7.13,6.33,6.43,0,*44
1504303472.16,1876,23.19,73870.5,7.11,6.21,6.33,0,*41
1504303473.37,1877,23.19,73864.5,7.11,6.29,6.33,0,*48
1504303474.59,1878,23.19,73860.8,7.11,6.21,6.39,0,*45
1504303475.82,1879,23.19,73872.3,7.11,6.21,6.39,0,*44
1504303477.02,1880,23.19,73880.5,7.11,6.21,6.33,0,*48
1504303478.24,1881,23.19,73876.0,7.11,6.07,6.17,0,*4B
1504303479.41,1882,23.19,73866.0,7.13,6.11,6.21,0,*48
1504303480.6,1883,23.19,73862.5,7.11,6.11,6.29,0,*43
1504303481.8,1884,23.19,73862.0,7.13,6.13,6.25,0,*48
1504303482.99,1885,23.19,73862.8,7.11,6.11,6.21,0,*4D
1504303484.21,1886,23.19,73860.5,7.11,6.17,6.29,0,*40
1504303485.42,1887,23.19,73854.8,7.13,6.25,6.35,0,*4F
1504303486.64,1888,23.19,73856.8,7.11,6.29,6.39,0,*42
1504303487.87,1889,23.19,73862.0,7.13,6.43,6.47,0,*44
1504303489.12,1890,23.19,73862.5,7.11,6.43,6.43,0,*4A
1504303490.35,1891,23.19,73862.3,7.13,6.47,6.51,0,*4E
1504303491.6,1892,23.19,73860.0,7.11,6.43,6.47,0,*4C
1504303492.82,1893,23.19,73864.0,7.13,6.51,6.57,0,*4D
1504303494.04,1894,23.19,73870.3,7.13,6.51,6.57,0,*4A
1504303495.27,1895,23.19,73868.3,7.13,6.51,6.57,0,*4B
1504303496.49,1896,23.19,73866.5,7.13,6.51,6.57,0,*48
1504303497.7,1897,23.19,73864.0,7.13,6.47,6.57,0,*4E
1504303498.92,1898,23.19,73874.0,7.13,6.47,6.57,0,*41
1504303500.17,1899,23.19,73864.0,7.15,6.47,6.57,0,*46
1504303501.43,1900,23.19,73870.5,7.15,6.47,6.51,0,*41
1504303502.64,1901,23.19,73866.0,7.13,6.47,6.57,0,*40
1504303503.87,1902,23.19,73866.0,7.13,6.47,6.47,0,*42
1504303505.1,1903,23.19,73874.5,7.13,6.51,6.51,0,*43
1504303506.32,1904,23.19,73874.8,7.13,6.47,6.57,0,*45
1504303507.57,1905,23.19,73872.0,7.15,6.51,6.61,0,*40
1504303508.83,1906,23.19,73874.8,7.15,6.47,6.51,0,*47
1504303510.08,1907,23.19,73878.3,7.15,6.47,6.57,0,*40
1504303511.33,1908,23.19,73882.5,7.15,6.47,6.61,0,*4A
1504303512.58,1909,23.19,73882.3,7.15,6.61,6.61,0,*4F
1504303513.79,1910,23.19,73878.5,7.17,6.57,6.61,0,*40
1504303515.04,1911,23.19,73880.3,7.15,6.57,6.61,0,*43
1504303516.26,1912,23.19,73878.3,7.17,6.61,6.65,0,*43
1504303517.48,1913,23.19,73878.0,7.17,6.61,6.65,0,*42
1504303518.7,1914,23.19,73868.5,7.17,6.61,6.73,0,*42
1504303519.89,1915,23.19,73870.8,7.17,6.61,6.75,0,*45
1504303521.11,1916,23.19,73866.3,7.17,6.65,6.73,0,*44
1504303522.31,1917,23.19,73864.8,7.17,6.61,6.75,0,*47
1504303523.53,1918,23.19,73864.8,7.17,6.65,6.73,0,*4A
1504303524.75,1919,23.19,73868.0,7.17,6.61,6.65,0,*48
1504303526.0,1920,23.19,73872.8,7.19,6.61,6.65,0,*4C
1504303527.24,1921,23.19,73868.0,7.19,6.61,6.73,0,*4A
1504303528.45,1922,23.19,73872.8,7.17,6.61,6.73,0,*47
1504303529.67,1923,23.19,73868.0,7.17,6.61,6.73,0,*46
1504303530.89,1924,23.19,73872.0,7.17,6.61,6.65,0,*46
1504303532.14,1925,23.19,73870.5,7.19,6.65,6.65,0,*4D
1504303533.38,1926,23.19,73868.8,7.19,6.61,6.73,0,*4D
1504303534.58,1927,23.19,73866.3,7.21,6.65,6.75,0,*45
1504303535.82,1928,23.19,73866.3,7.19,6.53,6.61,0,*41
1504303537.07,1929,23.19,73866.3,7.19,6.51,6.61,0,*42
1504303538.29,1930,23.19,73864.0,7.21,6.53,6.65,0,*47
1504303539.52,1931,23.19,73866.5,7.21,6.51,6.65,0,*44
1504303540.74,1932,23.19,73860.8,7.21,6.53,6.65,0,*45
1504303541.96,1933,23.19,73864.5,7.21,6.53,6.65,0,*44
1504303543.2,1934,23.19,73866.3,7.19,6.53,6.53,0,*4D
1504303544.45,1935,23.19,73862.5,7.19,6.51,6.53,0,*4E
1504303545.67,1936,23.19,73862.8,7.21,6.51,6.53,0,*46
1504303546.9,1937,23.19,73862.8,7.21,6.43,6.51,0,*46
1504303548.16,1938,23.19,73862.0,7.19,6.47,6.51,0,*46
1504303549.41,1939,23.19,73870.5,7.19,6.47,6.51,0,*47
1504303550.66,1940,23.19,73874.0,7.19,6.47,6.51,0,*49
1504303551.9,1941,23.19,73868.0,7.19,6.47,6.53,0,*4A
1504303553.13,1942,23.19,73868.3,7.21,6.51,6.57,0,*41
1504303554.37,1943,23.19,73868.0,7.19,6.47,6.53,0,*48
1504303555.62,1944,23.19,73870.8,7.19,6.47,6.65,0,*4A
1504303556.87,1945,23.19,73868.5,7.19,6.47,6.61,0,*4F
1504303558.09,1946,23.19,73872.5,7.21,6.51,6.57,0,*45
1504303559.32,1947,23.19,73870.3,7.21,6.51,6.57,0,*44
1504303560.54,1948,23.19,73874.5,7.21,6.53,6.65,0,*48
1504303561.75,1949,23.19,73878.3,7.21,6.53,6.57,0,*48
1504303562.97,1950,23.19,73876.0,7.21,6.53,6.65,0,*41
1504303564.19,1951,23.19,73880.5,7.25,6.53,6.65,0,*44
1504303565.4,1952,23.19,73878.5,7.21,6.53,6.57,0,*42
1504303566.62,1953,23.19,73886.8,7.21,6.53,6.57,0,*43
1504303567.84,1954,23.19,73880.8,7.21,6.53,6.65,0,*45
1504303569.06,1955,23.19,73878.3,7.21,6.53,6.53,0,*41
1504303570.28,1956,23.19,73884.8,7.21,6.51,6.53,0,*40
1504303571.53,1957,23.19,73894.3,7.19,6.51,6.61,0,*4B
1504303572.75,1958,23.19,73890.8,7.25,6.61,6.73,0,*4B
1504303573.97,1959,23.19,73892.3,7.21,6.53,6.69,0,*44
1504303575.18,1960,23.19,73888.3,7.25,6.57,6.73,0,*45
1504303576.4,1961,23.19,73886.3,7.25,6.61,6.73,0,*41
1504303577.59,1962,23.19,73886.3,7.25,6.61,6.79,0,*48
1504303578.81,1963,23.19,73888.5,7.27,6.61,6.79,0,*4B
1504303580.03,1964,23.19,73888.0,7.25,6.61,6.69,0,*4F
1504303581.24,1965,23.19,73894.8,7.25,6.61,6.73,0,*45
1504303582.46,1966,23.19,73894.0,7.27,6.69,6.79,0,*46
1504303583.67,1967,23.19,73894.0,7.25,6.69,6.73,0,*4F
1504303584.89,1968,23.19,73896.5,7.25,6.61,6.69,0,*43
1504303586.11,1969,23.19,73898.3,7.25,6.61,6.73,0,*49
1504303587.32,1970,23.19,73894.0,7.25,6.69,6.73,0,*49
1504303588.56,1971,23.19,73892.3,7.27,6.61,6.73,0,*42
1504303589.78,1972,23.19,73888.5,7.25,6.57,6.73,0,*46
1504303591.02,1973,23.19,73898.8,7.27,6.61,6.73,0,*40
1504303592.24,1974,23.19,73898.5,7.25,6.57,6.69,0,*4B
1504303593.45,1975,23.19,73896.8,7.25,6.61,6.69,0,*4F
1504303594.67,1976,23.19,73898.3,7.25,6.61,6.73,0,*47
1504303595.91,1977,23.19,73898.8,7.27,6.61,6.69,0,*4F
1504303597.13,1978,23.19,73904.0,7.25,6.69,6.73,0,*41
1504303598.37,1979,23.19,73904.5,7.27,6.69,6.73,0,*42
1504303599.61,1980,23.19,73898.3,7.27,6.57,6.73,0,*49
1504303600.82,1981,23.19,73900.0,7.25,6.57,6.69,0,*41
1504303602.06,1982,23.19,73896.3,7.27,6.57,6.69,0,*40
1504303603.31,1983,23.19,73894.8,7.27,6.57,6.69,0,*41
1504303604.55,1984,23.19,73900.8,7.27,6.47,6.69,0,*47
1504303605.77,1985,23.19,73892.8,7.25,6.47,6.57,0,*49
1504303607.02,1986,23.19,73892.3,7.27,6.43,6.57,0,*4C
1504303608.26,1987,23.19,73888.0,7.27,6.43,6.57,0,*4D
1504303609.5,1988,23.19,73890.8,7.27,6.47,6.57,0,*46
1504303610.75,1989,23.19,73884.3,7.27,6.47,6.57,0,*47
1504303611.96,1990,23.19,73894.8,7.25,6.53,6.69,0,*45
1504303613.21,1991,23.19,73894.0,7.27,6.47,6.61,0,*4B
1504303614.45,1992,23.19,73894.0,7.27,6.47,6.61,0,*48
1504303615.7,1993,23.19,73888.3,7.27,6.47,6.61,0,*49
1504303616.95,1994,23.19,73890.5,7.27,6.43,6.69,0,*42
1504303618.19,1995,23.19,73888.8,7.27,6.35,6.57,0,*4F
1504303619.45,1996,23.19,73888.8,7.27,6.13,6.47,0,*49
1504303620.68,1997,23.19,73882.8,7.27,6.25,6.47,0,*4D
1504303621.91,1998,23.19,73886.3,7.27,6.25,6.53,0,*47
1504303623.15,1999,23.19,73884.5,7.27,6.43,6.61,0,*47
1504303624.39,2000,23.19,73886.8,7.27,6.43,6.57,0,*48
1504303625.64,2001,23.19,73888.3,7.27,6.47,6.61,0,*48
1504303626.89,2002,23.19,73890.3,7.27,6.35,6.57,0,*4B
1504303628.11,2003,23.19,73886.0,7.25,6.43,6.57,0,*49
1504303629.33,2004,23.19,73882.3,7.27,6.25,6.61,0,*49
1504303630.55,2005,23.19,73878.5,7.27,6.21,6.53,0,*4D
1504303631.78,2006,23.19,73872.5,7.27,6.25,6.61,0,*4B
1504303633.0,2007,23.19,73872.3,7.27,6.25,6.57,0,*4F
1504303634.2,2008,23.19,73874.8,7.29,6.25,6.61,0,*4B
1504303635.44,2009,23.19,73874.8,7.31,6.17,6.57,0,*47
1504303636.61,2010,23.19,73868.8,7.29,5.95,6.29,0,*46
1504303637.82,2011,23.19,73874.3,7.27,6.03,6.33,0,*4E
1504303638.99,2012,23.19,73868.5,7.29,6.07,6.29,0,*4C
1504303640.23,2013,23.19,73866.0,7.27,5.73,5.77,0,*4B
1504303641.46,2014,23.19,73870.0,7.25,5.89,5.89,0,*4A
1504303642.69,2015,23.19,73858.5,7.27,5.93,6.03,0,*43
1504303643.87,2016,23.19,73844.0,7.25,5.99,6.03,0,*48
1504303645.07,2017,23.19,73854.0,7.25,5.93,6.03,0,*43
1504303646.24,2018,23.19,73856.5,7.25,6.11,6.21,0,*45
1504303647.45,2019,23.19,73858.3,7.25,6.13,6.33,0,*45
1504303648.65,2020,23.19,73850.3,7.21,6.21,6.39,0,*40
1504303649.86,2021,23.19,73854.8,7.21,6.33,6.39,0,*42
1504303651.07,2022,23.19,73854.5,7.21,6.33,6.51,0,*4F
1504303652.3,2023,23.19,73862.0,7.21,6.35,6.51,0,*48
1504303653.51,2024,23.19,73862.5,7.25,6.33,6.47,0,*4A
1504303654.75,2025,23.19,73862.0,7.25,6.35,6.47,0,*4D
1504303655.98,2026,23.19,73858.8,7.25,6.35,6.43,0,*4A
1504303657.2,2027,23.19,73856.8,7.25,6.43,6.53,0,*4B
1504303658.44,2028,23.19,73858.5,7.27,6.43,6.53,0,*46
1504303659.65,2029,23.19,73860.3,7.25,6.25,6.47,0,*40
1504303660.86,2030,23.19,73860.5,7.25,6.33,6.43,0,*4B
1504303662.09,2031,23.19,73862.5,7.25,6.35,6.47,0,*48
1504303663.31,2032,23.19,73864.3,7.25,6.43,6.53,0,*4F
1504303664.53,2033,23.19,73874.0,7.25,6.43,6.53,0,*4E
1504303665.77,2034,23.19,73876.8,7.25,6.35,6.47,0,*4D
1504303666.99,2035,23.19,73872.0,7.25,6.47,6.53,0,*4C
1504303668.21,2036,23.19,73872.0,7.25,6.43,6.53,0,*4B
1504303669.42,2037,23.19,73870.8,7.25,6.53,6.53,0,*4B
1504303670.63,2038,23.19,73872.0,7.25,6.53,6.57,0,*40
1504303671.86,2039,23.19,73876.8,7.21,6.51,6.57,0,*47
1504303673.07,2040,23.19,73886.3,7.25,6.53,6.61,0,*4A
1504303674.28,2041,23.19,73888.8,7.25,6.53,6.61,0,*4B
1504303675.5,2042,23.19,73882.3,7.25,6.53,6.61,0,*48
1504303676.71,2043,23.19,73884.3,7.25,6.53,6.61,0,*49
1504303677.93,2044,23.19,73882.3,7.25,6.47,6.57,0,*4E
1504303679.14,2045,23.19,73870.3,7.25,6.53,6.57,0,*4A
1504303680.36,2046,23.19,73866.3,7.25,6.47,6.61,0,*49
1504303681.57,2047,23.19,73870.5,7.25,6.53,6.57,0,*48
1504303682.81,2048,23.19,73866.5,7.27,6.53,6.53,0,*41
1504303684.05,2049,23.19,73878.5,7.25,6.35,6.43,0,*43
1504303685.28,2050,23.19,73876.0,7.25,6.35,6.43,0,*4B
1504303686.5,2051,23.19,73872.0,7.25,6.43,6.43,0,*4B
1504303687.72,2052,23.19,73876.5,7.25,6.43,6.53,0,*49
1504303688.94,2053,23.19,73882.3,7.25,6.47,6.53,0,*4C
1504303690.19,2054,23.19,73894.5,7.27,6.47,6.53,0,*49
1504303691.42,2055,23.19,73896.5,7.25,6.43,6.47,0,*4B
1504303692.64,2056,23.19,73902.3,7.25,6.47,6.53,0,*49
1504303693.85,2057,23.19,73904.3,7.25,6.53,6.57,0,*49
1504303695.07,2058,23.19,73902.5,7.25,6.53,6.61,0,*43
1504303696.31,2059,23.19,73902.8,7.27,6.61,6.73,0,*42
1504303697.55,2060,23.19,73900.5,7.27,6.61,6.73,0,*48
1504303698.77,2061,23.19,73900.5,7.25,6.69,6.73,0,*43
1504303700.01,2062,23.19,73902.8,7.27,6.61,6.73,0,*4A
1504303701.25,2063,23.19,73906.8,7.27,6.61,6.69,0,*40
1504303702.49,2064,23.19,73906.5,7.27,6.61,6.73,0,*4C
1504303703.74,2065,23.19,73908.5,7.27,6.61,6.73,0,*4D
1504303704.95,2066,23.19,73906.0,7.27,6.61,6.79,0,*44
1504303706.2,2067,23.19,73908.5,7.27,6.61,6.73,0,*4F
1504303707.44,2068,23.19,73902.8,7.27,6.47,6.57,0,*42
1504303708.69,2069,23.19,73892.5,7.27,6.47,6.53,0,*47
1504303709.93,2070,23.19,73890.3,7.27,6.47,6.57,0,*4B
1504303711.17,2071,23.19,73888.5,7.27,6.53,6.69,0,*42
1504303712.41,2072,23.19,73890.3,7.27,6.57,6.69,0,*45
1504303713.65,2073,23.13,73882.8,7.27,6.61,6.69,0,*41
1504303714.86,2074,23.19,73876.8,7.29,6.65,6.75,0,*41
1504303716.08,2075,23.19,73884.5,7.29,6.65,6.73,0,*46
1504303717.3,2076,23.19,73886.5,7.29,6.57,6.61,0,*47
1504303718.53,2077,23.19,73884.8,7.29,6.39,6.51,0,*4D
1504303719.77,2078,23.19,73892.3,7.29,6.35,6.47,0,*49
1504303720.98,2079,23.19,73894.0,7.29,6.29,6.47,0,*45
1504303722.2,2080,23.19,73892.3,7.29,6.35,6.57,0,*4F
1504303723.41,2081,23.19,73892.3,7.29,6.29,6.51,0,*45
1504303724.65,2082,23.19,73894.8,7.27,6.25,6.47,0,*43
1504303725.88,2083,23.19,73906.8,7.27,6.21,6.35,0,*43
1504303727.13,2084,23.19,73896.8,7.27,6.35,6.53,0,*41
1504303728.36,2085,23.19,73888.0,7.27,6.25,6.47,0,*44
1504303729.57,2086,23.19,73890.5,7.25,6.25,6.47,0,*45
1504303730.8,2087,23.19,73892.8,7.27,6.25,6.43,0,*42
1504303732.03,2088,23.19,73898.3,7.27,6.33,6.43,0,*4A
1504303733.26,2089,23.19,73898.3,7.27,6.25,6.47,0,*48
1504303734.5,2090,23.13,73896.8,7.27,6.25,6.47,0,*40
1504303735.72,2091,23.19,73894.8,7.27,5.93,6.21,0,*4F
1504303736.91,2092,23.19,73894.0,7.25,6.03,6.33,0,*47
1504303738.12,2093,23.19,73892.3,7.27,6.03,6.33,0,*44
1504303739.32,2094,23.19,73888.0,7.29,6.07,6.35,0,*4F
1504303740.49,2095,23.19,73890.8,7.25,6.11,6.25,0,*44
1504303741.7,2096,23.19,73888.0,7.25,6.21,6.47,0,*40
1504303742.91,2097,23.13,73886.3,7.25,6.25,6.47,0,*45